Hourly Weather Roundup
Issued by NWS Central Illinois

Home | Current Version | Previous Version | Text Only | Print | Product List | Glossary On
Versions: 1 2 3 4 5 6 7 8 9 10 11 12 13 14 15 16 17 18 19 20 21 22 23 24 25 26 27 28 29 30 31 32 33 34 35 36 37 38 39 40 41 42 43 44 45 46 47 48 49 50
000
NZUS43 KILX 301310
HWRILX

AREA WEATHER ROUNDUP
NATIONAL WEATHER SERVICE, LINCOLN IL
800 AM CDT SAT AUG 30 2014


CITY           SKY/WX    TMP DP  RH WIND       PRES   REMARKS
BLOOMINGTON    PTSUNNY   71  68  90 S13       29.93R
CHAMPAIGN      CLOUDY    73  69  87 S10       29.95S
DECATUR        PTSUNNY   73  69  87 SW12      29.95R
FLORA          CLOUDY    73  70  89 SW8       29.99F
GALESBURG      MOSUNNY   69  67  93 SW9       29.88R
JACKSONVILLE   MOSUNNY   74  71  91 S8        29.93R
LACON          PTSUNNY   72  69  89 S7        29.87S
LAWRENCEVILLE  CLOUDY    73  71  93 SW8       30.01R
LITCHFIELD     PTSUNNY   71  70  96 S9        29.95S
$$


CITY           SKY/WX    TMP DP  RH WIND       PRES   REMARKS
LINCOLN        MOSUNNY   73  70  88 S7        29.89S
MACOMB         MOSUNNY   69  67  94 SW5       29.91R
MATTOON        CLOUDY    73  68  84 S9        29.96S
MT CARMEL AP   LGT RAIN  73  72  94 SW7       30.01S
OLNEY-NOBLE AP LGT RAIN  72  70  94 CALM      30.00F
PARIS          CLOUDY    73  69  90 S8        29.98S
PEORIA         CLOUDY    73  69  87 SW13      29.89R
PONTIAC        PTSUNNY   75  72  88 S9        29.89S
RANTOUL        CLOUDY    74  68  81 SW12      29.95S
ROBINSON       CLOUDY    74  73  93 S7        30.01S
SPRINGFIELD    MOSUNNY   74  69  85 S9        29.93R
TAYLORVILLE    PTSUNNY   70  70 100 S10       29.95R
$$

...REGIONAL REPORTS...


CITY           SKY/WX    TMP DP  RH WIND       PRES   REMARKS
CHICAGO O`HARE PTSUNNY   74  68  81 SW10      29.85F
KANKAKEE       PTSUNNY   74  71  90 S13G18    29.91R
MOLINE         CLOUDY    71  67  87 SW13G22   29.84R
MOUNT VERNON   CLOUDY    72  66  83 SW10      30.01R
PITTSFIELD     MOSUNNY   73  69  87 S7        29.93R
QUINCY         SUNNY     71  69  93 S8        29.90R
ROCKFORD       PTSUNNY   69  66  90 S9        29.84S
$$


CITY           SKY/WX    TMP DP  RH WIND       PRES   REMARKS
BURLINGTON     PTSUNNY   70  68  93 SW10      29.88R
CEDAR RAPIDS   CLOUDY    68  67  96 W13       29.83R
DES MOINES     CLOUDY    68  65  90 NW9       29.87R
KIRKSVILLE     SUNNY     71  68  90 SW5       29.91R
OTTUMWA        SUNNY     67  65  93 W7        29.87R
ST LOUIS       PTSUNNY   76  68  76 S8        29.95R
$$


CITY           SKY/WX    TMP DP  RH WIND       PRES   REMARKS
TERRE HAUTE    CLOUDY    73  68  84 S9        29.99S
EVANSVILLE     LGT RAIN  73  70  90 CALM      30.01F FOG
INDIANAPOLIS   RAIN      71  67  87 S14G21    30.00R FOG
LAFAYETTE      CLOUDY    72  68  87 VRB7      29.95R
MADISON        PTSUNNY   72  67  84 S12       29.78R
MILWAUKEE      PTSUNNY   72  67  84 SW13      29.81S
$$





USA.gov is the U.S. government's official web portal to all federal, state and local government web resources and services.